Weather Roundup
Issued by NWS Corpus Christi, TX

Home | Current Version | Previous Version | Text Only | Print | Product List | Glossary On
Versions: 1 2 3 4 5 6 7 8 9 10 11 12 13 14 15 16 17 18 19 20 21 22 23 24 25 26 27 28 29 30 31 32 33 34 35 36 37 38 39 40 41 42 43 44 45 46 47 48 49 50
000
ASUS44 KCRP 221810
HRRCRP

SOUTH TEXAS REGIONAL WEATHER ROUNDUP
NATIONAL WEATHER SERVICE CORPUS CHRISTI TX
100 PM CDT THU JUN 22 2017


TXZ229>244-221900-
...CORPUS CHRISTI AREA OBSERVATIONS...

CITY           SKY/WX    TMP DP  RH WIND       PRES   REMARKS
CORPUS CHRISTI PTSUNNY   96  72  45 S10G18    29.71F HX 104
NAS CORPUS CHR MOSUNNY   94  77  57 SE15G22   29.71F HX 108
ROCKPORT       CLOUDY    94  69  44 SE12      29.71F HX  99
KINGSVILLE NAS MOSUNNY   99  72  41 S8        29.70F HX 108
ALICE          SUNNY     98  65  33 S9        29.70S HX 101
ORANGE GROVE   SUNNY     98  69  38 VRB3      29.71F HX 104
FALFURRIAS     SUNNY    100  64  30 SW3       29.69F HX 103
$$

...VICTORIA AREA OBSERVATIONS...

CITY           SKY/WX    TMP DP  RH WIND       PRES   REMARKS
VICTORIA       CLOUDY    91  67  44 W12       29.72F HX  94
BEEVILLE       FAIR      96  66  36 SE6       29.72S HX 100
PLEASANTON     SUNNY     90  60  36 NW3       29.73F HX  90
SAN ANTONIO    PTSUNNY   90  64  42 SW7       29.74F HX  91
$$

...LAREDO AREA OBSERVATIONS...

CITY           SKY/WX    TMP DP  RH WIND       PRES   REMARKS
LAREDO         SUNNY     99  69  37 W5        29.71F HX 105
COTULLA        SUNNY     96  61  31 VRB5      29.71F HX  96
DEL RIO        SUNNY     92  61  35 S10       29.74F HX  92
MCALLEN        SUNNY    107  65  25 SE7       29.68F HX 111
HEBBRONVILLE   SUNNY     97  62  31 S7        29.73F HX  98
$$

...OTHER TEXAS OBSERVATIONS...

CITY           SKY/WX    TMP DP  RH WIND       PRES   REMARKS
BROWNSVILLE    SUNNY    100  65  31 S25G32    29.71F HX 103
HOUSTON        CLOUDY    81  74  79 SW14G20   29.70R
COL. STATION   CLOUDY    80  74  81 W12       29.70F
AUSTIN         PTSUNNY   91  69  48 VRB5      29.72F HX  96
WACO           CLOUDY    85  72  65 N8        29.71F HX  91
FORT WORTH     CLOUDY    84  72  67 N6        29.70S
WICHITA FALLS  MOSUNNY   87  66  49 VRB5      29.73F
LUBBOCK        MOSUNNY   89  57  33 VRB5      29.85F
EL PASO        MOSUNNY   99  45  15 W13       29.87F HX  95
$$

...MARINE OBSERVATIONS...

STATION/POSITION TIME  SKY/WX   TEMP    WIND        PRES    VSBY  WAVE   SWELL
                                AIR SEA DIR/SP/G                  HT/PER HT/PER
                 (UTC)          (F)     (DEG/KT/KT) (MB)    (MI)  (FT/S) (FT/S)
PORT ARANSAS     1800            85 85  140/ 10/ 11 1006.9F
BUOY 90 E PORT A 1650            83 83  240/ 10/ 12 1007.3          5/10   3/10
BUOY 45 SE BAFFI 1650            84     180/ 14/ 16 1006.1          4/ 9   3/ 9
BUOY 200 E PT IS 1650            83 83  190/ 16/ 19 1009.8          6/ 8   3/ 8
BUOY 15 E GALVES 1650            79 81  250/ 17/ 21 1005.8          6/ 6   2/ 9
$$




USA.gov is the U.S. government's official web portal to all federal, state and local government web resources and services.